Location: Spring Creek
(38.2870°N, 100.2160°W)
Time: 22:26:13
(UTC+00:00)

Okean-O - Pass Details

Date: 08 May 2021
Orbit: 638 x 641 km, 98.2° (Epoch: 21 June)

Event Time Altitude Azimuth Distance (km) Brightness Sun altitude
Rises 01:58:30 0° 178° (S) 2,929 5.7 -4.4°
Reaches altitude 10° 02:00:44 10° 184° (S) 2,025 5.0 -4.8°
Maximum altitude 02:05:02 51° 260° (W) 809 3.6 -5.6°
Drops below altitude 10° 02:09:22 10° 336° (NNW) 2,040 6.1 -6.4°
Sets 02:11:38 0° 342° (NNW) 2,954 6.8 -6.7°
